Location: Olda
(45.8833°N, 9.5500°E)
Time: 14:12:14
(UTC+00:00)

SME Rocket - Pass Details

Date: 03 March 2021
Orbit: 550 x 2652 km, 99.9° (Epoch: 16 April)

Event Time Altitude Azimuth Distance (km) Brightness Sun altitude
Rises 19:06:54 0° 15° (NNE) 4,999 7.7 -20.8°
Reaches altitude 10° 19:10:26 10° 17° (NNE) 3,688 7.0 -21.4°
Maximum altitude 19:18:41 80° 105° (ESE) 1,085 4.0 -22.8°
Drops below altitude 10° 19:23:56 10° 192° (SSW) 2,401 6.0 -23.7°
Sets 19:25:51 0° 193° (SSW) 3,167 6.7 -24.0°
